• Join FlightAware (Why Join?)
  • Login
  • US Flag 
12:50AM EST


 

Airport Tracker/Info


-or-


 

Live Flight TrackerFlight Track Log ✈ SWA8500 ✈ 28-Apr-2013 ✈ KBWI - KALB

Flight Track Log - Related Links

Times and Time Zones

All times are in EDT time to prevent confusion due to time zone crossing. See the SWA8500 flight status page for this flight to view local times or setup timezone preferences in your user account.

Time Position Orientation Groundspeed Altitude Reporting Facility
EDT Latitude Longitude Course Direction KTS MPH feet Rate Location/Type
07:04AM 39.1178 -76.5894 284° West 195 224 5,200  Level Washington Center
07:05AM 39.0767 -76.5114 124° Southeast 222 255 9,600 3,900 Climbing Washington Center
07:06AM 39.0336 -76.4200 121° Southeast 241 277 13,000 2,571 Climbing Washington Center
07:07AM 39.0550 -76.3081 76° East 274 315 14,700 3,000 Climbing Washington Center
07:08AM 39.0931 -76.1961 66° East 297 342 19,000 4,116 Climbing Washington Center
07:09AM 39.1533 -76.5666 284° West  Level FlightAware Approximate
07:09AM 39.1417 -76.0547 66° East 353 406 23,000  Level Washington Center
07:10AM 39.1817 -75.9208 69° East 378 435 26,900 2,950 Climbing Washington Center
07:11AM 39.2486 -75.8033 54° Northeast 403 464 28,900 577 Climbing Washington Center
07:14AM 39.4583 -75.5411 44° Northeast 433 498 28,900  Level New York Center
07:16AM 39.6300 -75.3156 45° Northeast 438 504 28,900  Level New York Center
07:17AM 39.7136 -75.1994 47° Northeast 438 504 28,900  Level New York Center
07:18AM 39.8033 -75.0861 44° Northeast 438 504 28,900  Level New York Center
07:19AM 39.8950 -74.9728 43° Northeast 438 504 28,900  Level New York Center
07:20AM 39.9928 -74.8539 43° Northeast 445 512 28,900 49 Level New York Center
07:21AM 40.0733 -74.7556 43° Northeast 429 494 29,000 50 Climbing New York Center
07:22AM 40.1692 -74.6361 44° Northeast 435 501 29,000 -51 Level New York Center
07:23AM 40.2622 -74.5244 42° Northeast 435 501 28,900 -51 Descending New York Center
07:24AM 40.3492 -74.4147 44° Northeast 440 506 28,900  Level New York Center
07:25AM 40.4400 -74.3022 43° Northeast 440 506 28,900  Level New York Center
07:26AM 40.5308 -74.1897 43° Northeast 440 506 28,900 -1,137 Level New York Center
07:28AM 40.7506 -73.9167 43° Northeast 426 490 24,900 -1,435 Descending Boston Center
07:29AM 40.8311 -73.8169 43° Northeast 404 465 23,900 -500 Descending Boston Center
07:30AM 40.9114 -73.7228 42° Northeast 391 450 23,900 -250 Level Boston Center
07:31AM 40.9853 -73.6225 46° Northeast 386 444 23,400 -500 Descending Boston Center
07:32AM 41.0592 -73.5383 41° Northeast 381 438 22,900 -550 Descending Boston Center
07:33AM 41.1533 -73.4931 20° North 359 413 22,300 -800 Descending Boston Center
07:34AM 41.2556 -73.4975 358° North 350 403 21,300 -1,750 Descending Boston Center
07:35AM 41.3617 -73.5047 357° North 343 395 18,800 -2,200 Descending Boston Center
07:36AM 41.4472 -73.5064 359° North 343 395 16,900 -2,150 Descending Boston Center
07:37AM 41.5511 -73.5136 357° North 338 389 14,500 -2,100 Descending Boston Center
07:38AM 41.6347 -73.5122 North 332 382 12,700 -1,600 Descending Boston Center
07:39AM 41.7306 -73.5167 358° North 326 375 11,300 -900 Descending Boston Center
07:40AM 41.8181 -73.5181 359° North 320 368 10,900 -200 Descending Boston Center
07:41AM 41.9075 -73.5197 359° North 310 357 10,900  Level Boston Center
07:42AM 41.9931 -73.5239 358° North 310 357 10,900 67 Level Boston Center
07:43AM 42.0389 -73.5275 357° North 312 359 11,000 100 Climbing Boston Center
07:43AM 42.0825 -73.5283 359° North 310 357 11,000  Level Boston Center
07:43AM 42.1117 -73.5258 North 314 361 11,000  Level Boston Center
07:44AM 42.1658 -73.5519 340° North 310 357 11,000  Level Boston Center
07:44AM 42.1906 -73.5667 336° Northwest 291 335 11,000  Level Boston Center
07:45AM 42.2383 -73.5925 338° Northwest 296 341 11,000 -627 Level Boston Center
07:46AM 42.2694 -73.6017 348° North 274 315 10,300 -1,600 Descending Boston Center
07:46AM 42.3108 -73.6275 335° Northwest 285 328 9,400 -1,700 Descending Boston Center
07:47AM 42.3356 -73.6422 336° Northwest 265 305 8,600 -1,900 Descending Boston Center
07:47AM 42.3792 -73.6572 346° North 264 304 7,500 -1,967 Descending Boston Center
07:48AM 42.4061 -73.6744 335° Northwest 263 303 6,600 -2,200 Descending Boston Center
07:48AM 42.4497 -73.6950 341° North 264 304 5,300 -1,967 Descending Boston Center
07:49AM 42.4828 -73.7153 336° Northwest 270 311 4,600 -1,500 Descending Boston Center
07:49AM 42.5181 -73.7303 343° North 264 304 3,800 -1,600 Descending Boston Center
07:50AM 42.5511 -73.7506 336° Northwest 268 308 3,000 -1,100 Descending Boston Center
07:50AM 42.5864 -73.7656 343° North 264 304 2,700 -492 Descending Boston Center
07:51AM 42.6156 -73.7831 336° Northwest 246 283 2,500 -200 Descending Boston Center
07:51AM 42.6444 -73.7978 339° North 259 298 2,500 -590 Level Boston Center
07:52AM 42.6653 -73.8039 348° North 182 209 1,900 17,500 Descending Boston Center
07:52AM 42.7128 -73.8361 334° Northwest 259 298 20,000 -1,000 Climbing Boston Center
07:53AM 42.7047 -73.8075 111° Southeast 133 153 1,000  Descending Boston Center
07:53AM 42.7936 -73.8803 329° Northwest 259 298 20,000 10,556 Climbing Boston Center
07:54AM 42.8597 -73.9158 338° Northwest 259 298 20,000  Level Boston Center
07:55AM 42.8867 -73.9306 338° Northwest 259 298 20,000  Level Boston Center
07:56AM 42.8867 -73.9306 136° Southeast 259 298 20,000  Level Boston Center